sat.trackr.live / text

‹ back to catalog

UNKNOWN

NORAD 87239

UNKNOWN UNKNOWN UNKNOWN

§ Identity

Operator
Country
Launch date
Launch site
Launch vehicle
Mass (kg)
RCS (m²)

External: N2YO · Heavens-Above

§ Orbital elements

Epoch: 2026-09-16T07:13:20.414208Z

Period
98.86 min
Inclination
82.8722°
Eccentricity
0.0014412
Mean motion
14.56632793 rev/d
Perigee alt
693.9 km
Apogee alt
714.3 km
Semi-major
7,082.2 km
B*
1.8222e-3
RAAN
206.0934°
Arg perigee
238.2527°
Mean anomaly
121.7270°
Rev number
66,822

§ Raw data

UNKNOWN1 87239U          26259.30093072  .00008158  00000+0  18222-2 0  99952 87239  82.8722 206.0934 0014412 238.2527 121.7270 14.56632793668225

JSON: /api/v1/satellites/87239 · /tle

For live sub-satellite position, see the globe view (requires WebGL).

§ Visibility from observer

Set your observer location to see the next 7 days of passes ≥ 10°. The values pass through the URL so the page stays shareable.

No JS? Fill the form by hand. The geolocation button needs JavaScript.